Tracking 33744 objects as of 13-Apr-2026
HD Live streaming from Space Station
objects crossing your sky now

STARLINK-36370

Track STARLINK-36370 now!
10-day predictions
STARLINK-36370 is classified as:


NORAD ID: 67937
Int'l Code: 2026-037F
Perigee: 486.8 km
Apogee: 488.6 km
Inclination: 43.0 °
Period: 94.2 minutes
Semi major axis: 6858 km
RCS: Unknown
Launch date: February 24, 2026
Source: United States (US)
Launch site: AIR FORCE EASTERN TEST RANGE (AFETR)
Your satellite tracking list
Your tracking list is empty




NASA's NSSDC Master Catalog

Two Line Element Set (TLE):
1 67937U 26037F   26102.41606917  .00009644  00000-0  35065-3 0  9990
2 67937  42.9991   0.7122 0001359 272.2673  87.8024 15.28405453  8494
Source of the keplerian elements: AFSPC